GW5498 Weather Reports


time (UTC)temp
C
wind
direction
speed
KPH
gust
KPH
rain 1hr
cm
rain 24hr
cm
rain mn
cm
humidity
%
barometer
mb
20260508071319 10 226 1.6 6.4 0.00 0.00 0.00 82 1016.5
20260508070804 10 237 3.2 6.4 0.00 0.00 0.00 83 1016.5
20260508070304 10 219 1.6 6.4 0.00 0.00 0.00 83 1016.4
20260508065804 10 0 1.6 4.8 0.00 0.00 0.00 83 1016.3
20260508065307 10 212 1.6 4.8 0.00 0.00 0.00 83 1016.3
20260508064805 10 222 1.6 4.8 0.00 0.00 0.00 83 1016.3
20260508064304 10 190 3.2 4.8 0.00 0.00 0.00 83 1016.2
20260508063749 10 218 3.2 6.4 0.00 0.00 0.00 83 1016.2
20260508063250 10 235 1.6 6.4 0.00 0.00 0.00 84 1016.2
20260508062751 10 202 1.6 3.2 0.00 0.00 0.00 84 1016.1
20260508062251 10 229 1.6 3.2 0.00 0.00 0.00 84 1016.1
20260508061751 10 217 1.6 4.8 0.00 0.00 0.00 85 1016.1
20260508061252 10 191 1.6 6.4 0.00 0.00 0.00 85 1016.0
20260508060751 10 187 1.6 6.4 0.00 0.00 0.00 85 1016.0
20260508060252 10 0 1.6 4.8 0.00 0.00 0.00 85 1015.9
20260508055752 10 229 0.0 4.8 0.00 0.00 0.00 86 1015.9
20260508055252 10 199 0.0 4.8 0.00 0.00 0.00 86 1015.9
20260508054751 10 0 0.0 4.8 0.00 0.00 0.00 86 1015.9
20260508054252 10 0 0.0 3.2 0.00 0.00 0.00 85 1015.8
20260508053752 10 0 0.0 3.2 0.00 0.00 0.00 85 1015.8
20260508053253 9 0 0.0 3.2 0.00 0.00 0.00 86 1015.8
20260508052752 9 0 0.0 3.2 0.00 0.00 0.00 86 1015.7
20260508052237 9 0 0.0 3.2 0.00 0.00 0.00 86 1015.7
20260508051738 9 0 0.0 3.2 0.00 0.00 0.00 86 1015.6
20260508051235 9 0 0.0 4.8 0.00 0.00 0.00 86 1015.6
20260508050737 9 0 1.6 4.8 0.00 0.00 0.00 86 1015.6
20260508050244 9 212 0.0 4.8 0.00 0.00 0.00 86 1015.6
20260508045623 9 0 1.6 4.8 0.00 0.00 0.00 86 1015.6
20260508045121 9 0 1.6 4.8 0.00 0.00 0.00 86 1015.5
20260508044621 9 0 1.6 4.8 0.00 0.00 0.00 85 1015.5
20260508044122 9 124 1.6 4.8 0.00 0.00 0.00 85 1015.5
20260508043621 9 157 0.0 3.2 0.00 0.00 0.00 85 1015.5
20260508043122 10 0 0.0 3.2 0.00 0.00 0.00 85 1015.5
20260508042621 10 144 0.0 4.8 0.00 0.00 0.00 84 1015.5
20260508042107 10 0 0.0 4.8 0.00 0.00 0.00 84 1015.4
20260508041607 10 107 1.6 4.8 0.00 0.00 0.00 84 1015.4
20260508041107 10 178 1.6 4.8 0.00 0.00 0.00 84 1015.4
20260508040607 10 0 0.0 4.8 0.00 0.00 0.00 84 1015.4
20260508040326 10 0 1.6 4.8 0.00 0.00 0.00 84 1015.3
20260508035824 10 197 1.6 4.8 0.00 0.00 0.00 84 1015.3
20260508035327 10 190 1.6 6.4 0.00 0.00 0.00 84 1015.3
20260508034838 10 149 1.6 6.4 0.00 0.00 0.00 84 1015.3
20260508034311 10 233 3.2 6.4 0.00 0.00 0.00 84 1015.3
20260508033811 10 215 3.2 6.4 0.00 0.00 0.00 84 1015.4
20260508033313 10 221 1.6 4.8 0.00 0.00 0.00 85 1015.4
20260508032811 10 238 1.6 4.8 0.00 0.00 0.00 85 1015.4
20260508032307 10 187 1.6 6.4 0.00 0.00 0.00 84 1015.4
20260508031804 10 0 1.6 6.4 0.00 0.00 0.00 84 1015.4
20260508031305 10 214 1.6 6.4 0.00 0.00 0.00 84 1015.4
20260508030809 10 173 1.6 4.8 0.00 0.00 0.00 84 1015.4
20260508030309 10 215 0.0 3.2 0.00 0.00 0.00 84 1015.4
20260508025757 10 0 0.0 3.2 0.00 0.00 0.00 84 1015.4
20260508025308 10 0 0.0 3.2 0.00 0.00 0.00 84 1015.4
20260508024803 10 0 0.0 4.8 0.00 0.00 0.00 84 1015.4
20260508024042 10 0 1.6 4.8 0.00 0.00 0.00 84 1015.4
20260508023541 10 0 1.6 6.4 0.00 0.00 0.00 84 1015.4
20260508023042 10 0 1.6 6.4 0.00 0.00 0.00 84 1015.4
20260508022528 10 236 0.0 3.2 0.00 0.00 0.00 84 1015.4
20260508022028 10 0 0.0 3.2 0.00 0.00 0.00 84 1015.4
20260508021529 10 230 1.6 6.4 0.00 0.00 0.00 84 1015.3
20260508021029 10 234 1.6 6.4 0.00 0.00 0.00 84 1015.3
20260508020529 10 203 1.6 4.8 0.00 0.00 0.00 84 1015.3
20260508020029 10 212 0.0 4.8 0.00 0.00 0.00 84 1015.3
20260508015524 10 216 0.0 3.2 0.00 0.00 0.00 83 1015.3
20260508015025 10 0 0.0 3.2 0.00 0.00 0.00 83 1015.3
20260508014520 10 0 0.0 3.2 0.00 0.00 0.00 83 1015.3
20260508014020 10 0 0.0 4.8 0.00 0.00 0.00 83 1015.3
20260508013520 10 0 0.0 4.8 0.00 0.00 0.00 83 1015.2
20260508013020 10 0 0.0 3.2 0.00 0.00 0.00 82 1015.3
20260508012520 10 0 0.0 3.2 0.00 0.00 0.00 82 1015.3
20260508012019 10 0 0.0 3.2 0.00 0.00 0.00 82 1015.3
20260508011516 10 225 0.0 3.2 0.00 0.00 0.00 82 1015.3
20260508011015 10 0 0.0 4.8 0.00 0.00 0.00 82 1015.4
20260508010514 10 0 1.6 8.0 0.00 0.00 0.00 82 1015.3
20260508010014 10 210 1.6 8.0 0.00 0.00 0.00 81 1015.2
20260508005514 10 214 3.2 8.0 0.00 0.00 0.00 81 1015.2
20260508005015 10 101 3.2 9.7 0.00 0.00 0.00 81 1015.2
20260508004514 10 78 3.2 9.7 0.00 0.00 0.00 81 1015.2
20260508004015 10 121 3.2 9.7 0.00 0.00 0.00 81 1015.3
20260508003510 10 136 3.2 8.0 0.00 0.00 0.00 81 1015.2
20260508003009 10 181 3.2 8.0 0.00 0.00 0.00 81 1015.3
20260508002510 10 88 3.2 12.9 0.00 0.00 0.00 80 1015.3
20260508002009 10 47 3.2 12.9 0.00 0.00 0.00 80 1015.4
20260508001509 10 155 3.2 9.7 0.00 0.00 0.00 80 1015.4
20260508001005 10 217 3.2 9.7 0.00 0.00 0.00 80 1015.5
20260508000505 10 170 3.2 9.7 0.00 0.00 0.00 79 1015.5
20260508000006 10 204 3.2 9.7 0.00 0.00 0.00 79 1015.5
20260507235505 10 147 3.2 9.7 0.00 0.00 0.00 79 1015.5
20260507235006 10 211 3.2 8.0 0.00 0.00 0.00 79 1015.6
20260507234506 10 113 1.6 9.7 0.00 0.00 0.00 79 1015.6
20260507234005 10 106 1.6 9.7 0.00 0.00 0.00 79 1015.6
20260507233506 10 96 1.6 12.9 0.00 0.00 0.00 79 1015.5
20260507233006 10 65 3.2 14.5 0.00 0.00 0.00 79 1015.6
20260507232508 10 136 3.2 14.5 0.00 0.00 0.00 79 1015.6
20260507232008 10 0 3.2 9.7 0.00 0.00 0.00 78 1015.6
20260507230735 10 130 3.2 9.7 0.00 0.00 0.00 78 1015.6
20260507225723 10 167 3.2 9.7 0.00 0.00 0.00 78 1015.6
20260507224723 10 94 4.8 12.9 0.00 0.00 0.00 77 1015.6
20260507223500 11 107 4.8 9.7 0.00 0.00 0.00 77 1015.7
20260507222959 11 92 3.2 9.7 0.00 0.00 0.00 77 1015.6
20260507222455 11 92 3.2 11.3 0.00 0.00 0.00 77 1015.6
20260507221954 11 207 4.8 12.9 0.00 0.00 0.00 76 1015.6
20260507221455 11 107 4.8 12.9 0.00 0.00 0.00 76 1015.6
20260507220955 11 108 4.8 12.9 0.00 0.00 0.00 76 1015.6
20260507220454 11 188 4.8 11.3 0.00 0.00 0.00 76 1015.6
20260507215955 11 203 4.8 12.9 0.00 0.00 0.00 75 1015.7
20260507215717 11 145 3.2 12.9 0.00 0.00 0.00 75 1015.7
20260507214955 11 219 3.2 9.7 0.00 0.00 0.00 74 1015.7
20260507214456 11 123 3.2 9.7 0.00 0.00 0.00 73 1015.7
20260507213954 11 124 3.2 12.9 0.00 0.00 0.00 72 1015.7
20260507213454 11 140 3.2 12.9 0.00 0.00 0.00 71 1015.7
20260507212954 11 0 3.2 11.3 0.00 0.00 0.00 71 1015.7
20260507212712 11 109 3.2 9.7 0.00 0.00 0.00 71 1015.6
20260507211950 11 149 1.6 8.0 0.00 0.00 0.00 71 1015.5
20260507211448 11 121 1.6 6.4 0.00 0.00 0.00 70 1015.5
20260507210948 11 0 3.2 11.3 0.00 0.00 0.00 70 1015.4
20260507210449 11 105 3.2 11.3 0.00 0.00 0.00 70 1015.4
20260507205949 11 123 1.6 8.0 0.00 0.00 0.00 69 1015.4
20260507205449 11 0 3.2 6.4 0.00 0.00 0.00 69 1015.4
20260507204948 11 214 3.2 8.0 0.00 0.00 0.00 69 1015.4
20260507204448 11 0 3.2 8.0 0.00 0.00 0.00 68 1015.3
20260507203949 11 105 3.2 8.0 0.00 0.00 0.00 68 1015.3
20260507203444 11 163 3.2 9.7 0.00 0.00 0.00 68 1015.3
20260507202945 11 111 3.2 9.7 0.00 0.00 0.00 68 1015.3
20260507202443 11 79 3.2 8.0 0.00 0.00 0.00 67 1015.2
20260507201943 12 105 3.2 8.0 0.00 0.00 0.00 67 1015.1
20260507201443 12 0 3.2 8.0 0.00 0.00 0.00 67 1015.1
20260507200943 12 143 3.2 8.0 0.00 0.00 0.00 67 1015.0
20260507200444 12 90 3.2 9.7 0.00 0.00 0.00 66 1015.0
20260507195944 12 103 3.2 9.7 0.00 0.00 0.00 66 1015.0
20260507195444 12 122 3.2 8.0 0.00 0.00 0.00 66 1014.9
20260507194943 12 120 3.2 8.0 0.00 0.00 0.00 65 1014.8
20260507194444 12 0 3.2 9.7 0.00 0.00 0.00 65 1014.8
20260507193944 12 128 3.2 9.7 0.00 0.00 0.00 64 1014.8
20260507193439 12 71 4.8 11.3 0.00 0.00 0.00 64 1014.7
20260507192940 12 128 4.8 11.3 0.00 0.00 0.00 63 1014.8
20260507192440 12 0 3.2 9.7 0.00 0.00 0.00 63 1014.8
20260507191938 12 150 3.2 11.3 0.00 0.00 0.00 62 1014.7
20260507191437 12 201 3.2 11.3 0.00 0.00 0.00 62 1014.7
20260507190938 12 133 3.2 11.3 0.00 0.00 0.00 62 1014.7
20260507190439 12 211 3.2 11.3 0.00 0.00 0.00 61 1014.7
20260507185938 12 119 4.8 14.5 0.00 0.00 0.00 61 1014.7
20260507185439 13 148 3.2 14.5 0.00 0.00 0.00 60 1014.6
20260507184939 13 107 3.2 9.7 0.00 0.00 0.00 59 1014.6
20260507184434 13 100 3.2 9.7 0.00 0.00 0.00 59 1014.6
20260507183935 13 89 3.2 9.7 0.00 0.00 0.00 58 1014.5
20260507183434 13 123 3.2 11.3 0.00 0.00 0.00 58 1014.5
20260507183157 13 117 3.2 11.3 0.00 0.00 0.00 58 1014.5
20260507182437 13 92 3.2 11.3 0.00 0.00 0.00 58 1014.4
20260507181934 13 288 3.2 9.7 0.00 0.00 0.00 58 1014.4
20260507181434 13 136 3.2 9.7 0.00 0.00 0.00 58 1014.3
20260507180934 13 0 3.2 9.7 0.00 0.00 0.00 57 1014.3
20260507180434 13 77 3.2 9.7 0.00 0.00 0.00 56 1014.3
20260507175935 13 100 3.2 9.7 0.00 0.00 0.00 56 1014.3
20260507175435 13 102 3.2 8.0 0.00 0.00 0.00 56 1014.3
20260507174935 13 98 3.2 14.5 0.00 0.00 0.00 55 1014.3
20260507174431 13 177 3.2 14.5 0.00 0.00 0.00 54 1014.3
20260507173927 13 112 3.2 9.7 0.00 0.00 0.00 54 1014.4
20260507173428 13 150 1.6 8.0 0.00 0.00 0.00 54 1014.4
20260507172928 13 57 3.2 9.7 0.00 0.00 0.00 54 1014.3
20260507172424 13 256 3.2 9.7 0.00 0.00 0.00 55 1014.3
20260507171924 13 136 3.2 11.3 0.00 0.00 0.00 54 1014.4
20260507171424 14 226 3.2 11.3 0.00 0.00 0.00 53 1014.4
20260507170924 14 124 3.2 11.3 0.00 0.00 0.00 53 1014.4
20260507170438 14 138 3.2 11.3 0.00 0.00 0.00 53 1014.4
20260507165924 14 0 3.2 9.7 0.00 0.00 0.00 53 1014.4
20260507165424 14 136 3.2 11.3 0.00 0.00 0.00 52 1014.3
20260507164923 14 107 3.2 11.3 0.00 0.00 0.00 52 1014.4
20260507164423 14 261 3.2 12.9 0.00 0.00 0.00 52 1014.5
20260507163919 14 123 3.2 12.9 0.00 0.00 0.00 53 1014.5
20260507163419 14 148 4.8 11.3 0.00 0.00 0.00 52 1014.4
20260507162418 14 115 4.8 14.5 0.00 0.00 0.00 54 1014.4
20260507161418 14 38 3.2 11.3 0.00 0.00 0.00 56 1014.4
20260507160418 14 103 4.8 14.5 0.00 0.00 0.00 55 1014.4
20260507154914 14 117 3.2 9.7 0.00 0.00 0.00 54 1014.6
20260507154414 13 143 3.2 9.7 0.00 0.00 0.00 56 1014.6
20260507153914 13 128 3.2 11.3 0.00 0.00 0.00 56 1014.7
20260507153414 13 212 3.2 11.3 0.00 0.00 0.00 56 1014.8
20260507152914 13 179 3.2 11.3 0.00 0.00 0.00 56 1014.8
20260507152414 13 71 3.2 11.3 0.00 0.00 0.00 56 1014.8
20260507151913 13 193 3.2 11.3 0.00 0.00 0.00 56 1014.9
20260507151414 13 70 3.2 12.9 0.00 0.00 0.00 56 1014.9
20260507150914 13 133 3.2 12.9 0.00 0.00 0.00 56 1014.9
20260507150414 13 221 3.2 9.7 0.00 0.00 0.00 56 1014.9
20260507145416 13 78 3.2 8.0 0.00 0.00 0.00 57 1015.0
20260507144413 13 115 3.2 12.9 0.00 0.00 0.00 55 1015.0
20260507143410 13 123 3.2 11.3 0.00 0.00 0.00 55 1015.0
20260507142410 13 96 3.2 11.3 0.00 0.00 0.00 56 1015.1
20260507141911 13 260 3.2 11.3 0.00 0.00 0.00 56 1015.2
20260507141409 13 0 3.2 11.3 0.00 0.00 0.00 56 1015.2
20260507140909 13 114 4.8 11.3 0.00 0.00 0.00 56 1015.2
20260507140409 13 239 4.8 11.3 0.00 0.00 0.00 57 1015.3
20260507135910 13 124 3.2 11.3 0.00 0.00 0.00 57 1015.3
20260507135409 13 215 3.2 9.7 0.00 0.00 0.00 55 1015.3
20260507134908 13 152 3.2 9.7 0.00 0.00 0.00 55 1015.3
20260507134408 13 117 3.2 9.7 0.00 0.00 0.00 55 1015.3
20260507133908 13 54 3.2 9.7 0.00 0.00 0.00 56 1015.3
20260507133411 13 260 3.2 12.9 0.00 0.00 0.00 57 1015.3
20260507132904 13 209 4.8 12.9 0.00 0.00 0.00 57 1015.4
20260507132404 13 125 4.8 16.1 0.00 0.00 0.00 55 1015.3
20260507131906 13 104 4.8 16.1 0.00 0.00 0.00 56 1015.4
20260507131404 13 122 4.8 12.9 0.00 0.00 0.00 57 1015.3
20260507130904 13 151 4.8 12.9 0.00 0.00 0.00 56 1015.3
20260507130405 13 208 3.2 11.3 0.00 0.00 0.00 55 1015.4
20260507125905 13 115 3.2 12.9 0.00 0.00 0.00 53 1015.3
20260507125405 13 0 4.8 14.5 0.00 0.00 0.00 54 1015.4
20260507124904 13 203 4.8 14.5 0.00 0.00 0.00 54 1015.3
20260507124403 13 211 4.8 12.9 0.00 0.00 0.00 54 1015.3
20260507123903 13 201 4.8 12.9 0.00 0.00 0.00 55 1015.4
20260507123404 13 214 4.8 11.3 0.00 0.00 0.00 55 1015.4
20260507122904 13 183 3.2 9.7 0.00 0.00 0.00 57 1015.4
20260507122404 13 56 4.8 12.9 0.00 0.00 0.00 56 1015.3
20260507121904 13 213 4.8 12.9 0.00 0.00 0.00 57 1015.4
20260507121404 12 54 4.8 12.9 0.00 0.00 0.00 58 1015.5
20260507120903 12 237 4.8 12.9 0.00 0.00 0.00 57 1015.5
20260507120359 13 220 4.8 11.3 0.00 0.00 0.00 58 1015.6
20260507115900 12 204 3.2 11.3 0.00 0.00 0.00 60 1015.6
20260507115358 13 19 3.2 11.3 0.00 0.00 0.00 59 1015.6
20260507114858 12 210 3.2 9.7 0.00 0.00 0.00 61 1015.7
20260507114354 12 230 4.8 12.9 0.00 0.00 0.00 61 1015.7
20260507113855 12 81 4.8 12.9 0.00 0.00 0.00 60 1015.6
20260507113355 12 121 3.2 11.3 0.00 0.00 0.00 60 1015.6
20260507112855 12 132 4.8 12.9 0.00 0.00 0.00 62 1015.7
20260507112354 12 142 4.8 12.9 0.00 0.00 0.00 60 1015.7
20260507111854 12 173 4.8 11.3 0.00 0.00 0.00 63 1015.7
20260507111355 12 212 4.8 11.3 0.00 0.00 0.00 62 1015.8
20260507110853 12 192 4.8 11.3 0.00 0.00 0.00 61 1015.8
20260507110405 12 248 4.8 14.5 0.00 0.00 0.00 63 1015.8
20260507105853 12 85 6.4 14.5 0.00 0.00 0.00 62 1015.9
20260507105353 12 153 4.8 9.7 0.00 0.00 0.00 63 1015.8
20260507104849 12 152 6.4 16.1 0.00 0.00 0.00 65 1015.9
20260507104349 12 129 4.8 16.1 0.00 0.00 0.00 63 1016.0
20260507103849 12 103 3.2 11.3 0.00 0.00 0.00 67 1016.0
20260507103348 12 222 4.8 11.3 0.00 0.00 0.00 67 1016.1
20260507102848 12 104 3.2 9.7 0.00 0.00 0.00 66 1016.1
20260507102347 12 179 3.2 8.0 0.00 0.00 0.00 67 1016.1
20260507101848 11 121 3.2 14.5 0.00 0.00 0.00 67 1016.1
20260507101348 11 62 4.8 14.5 0.00 0.00 0.00 69 1016.1
20260507100848 11 123 4.8 12.9 0.00 0.00 0.00 69 1016.1
20260507100347 11 173 4.8 12.9 0.00 0.00 0.00 70 1016.1
20260507095843 11 81 4.8 12.9 0.00 0.00 0.00 70 1016.1
20260507095342 11 90 4.8 12.9 0.00 0.00 0.00 71 1016.1
20260507094842 11 119 6.4 12.9 0.00 0.00 0.00 71 1016.2
20260507094342 11 146 4.8 11.3 0.00 0.00 0.00 71 1016.1
20260507093602 11 251 4.8 11.3 0.00 0.00 0.00 70 1016.0
20260507092843 11 166 3.2 9.7 0.00 0.00 0.00 71 1016.0
20260507091843 10 186 3.2 9.7 0.00 0.00 0.00 73 1016.0
20260507090839 10 215 3.2 11.3 0.00 0.00 0.00 74 1016.1
20260507085837 10 162 4.8 12.9 0.00 0.00 0.00 76 1016.1
20260507085337 10 164 4.8 11.3 0.00 0.00 0.00 75 1016.0
20260507084838 10 144 4.8 14.5 0.00 0.00 0.00 75 1016.0
20260507084337 10 142 4.8 14.5 0.00 0.00 0.00 76 1016.0
20260507083838 9 0 3.2 12.9 0.00 0.00 0.00 76 1015.9
20260507083338 9 210 3.2 12.9 0.00 0.00 0.00 75 1015.9
20260507082838 9 234 4.8 11.3 0.00 0.00 0.00 76 1015.9
20260507082338 8 199 6.4 12.9 0.00 0.00 0.00 77 1015.9
20260507081338 8 107 4.8 14.5 0.00 0.00 0.00 77 1015.8
20260507075334 8 67 3.2 11.3 0.00 0.00 0.00 79 1015.8
20260507074556 9 114 1.6 8.0 0.00 0.00 0.00 79 1015.7
20260507073834 8 210 1.6 8.0 0.00 0.00 0.00 80 1015.7
20260507073334 8 0 1.6 8.0 0.00 0.00 0.00 82 1015.7
20260507072834 8 180 3.2 9.7 0.00 0.00 0.00 83 1015.7
20260507072334 8 157 3.2 9.7 0.00 0.00 0.00 84 1015.7
20260507071834 8 138 3.2 9.7 0.00 0.00 0.00 85 1015.7